Regional Weather Roundup
Issued by NWS Mobile, AL

Home | Current Version | Previous Version | Text Only | Print | Product List | Glossary On
Versions: 1 2 3 4 5 6 7 8 9 10 11 12 13 14 15 16 17 18 19 20 21 22 23 24 25 26 27 28 29 30 31 32 33 34 35 36 37 38 39 40 41 42 43 44 45 46 47 48 49 50
000
ASUS44 KMOB 271710
RWRMOB
REGIONAL WEATHER ROUNDUP
NATIONAL WEATHER SERVICE MOBILE AL
1100 AM CST TUE JAN 27 2015

NOTE: "FAIR" INDICATES FEW OR NO CLOUDS BELOW 12,000 FEET WITH NO
      SIGNIFICANT WEATHER AND/OR OBSTRUCTIONS TO VISIBILITY.

  * THESE STATIONS ARE PART OF THE UNIVERSITY OF SOUTH ALABAMA
    MESONET AND ARE NOT UNDER NWS OR FAA QUALITY CONTROL.

ALZ061>064-271800-
COASTAL ALABAMA

CITY           SKY/WX    TMP DP  RH WIND       PRES   REMARKS
MOBILE REG APT SUNNY     60  37  42 NW12      30.10F
BROOKLEY FIELD SUNNY     63  39  41 NW12      30.11F
USA CAMPUS*    NOT AVBL
DOG RIVER*     NOT AVBL


CITY           SKY/WX    TMP DP  RH WIND       PRES   REMARKS
MOUNT VERNON*  NOT AVBL
SARALAND*      NOT AVBL
BAY MINETTE*   NOT AVBL
LOXLEY*        NOT AVBL
ROBERTSDALE*   NOT AVBL
FAIRHOPE*        N/A     57  41  54 NW7       30.09S
ELBERTA*         N/A     59  39  47 NW7       30.08F
FOLEY*         NOT AVBL
GRAND BAY*     NOT AVBL
DAUPHIN ISLND* NOT AVBL
BON SCOUR NWR* NOT AVBL
GULF SHORES    SUNNY     61  38  42 NW10      30.08F

$$

ALZ051>060-271800-
INTERIOR SOUTHWEST AND SOUTH CENTRAL ALABAMA

CITY           SKY/WX    TMP DP  RH WIND       PRES   REMARKS
GREENVILLE     SUNNY     56  33  42 N14G21    30.04S
EVERGREEN      SUNNY     58  36  43 NW14      30.07S
CASTLEBERRY*   NOT AVBL
ATMORE*          N/A     57  37  47 N15       30.09F
DIXIE*           N/A     59  37  44 N6        30.04S
ANDALUSIA/OPP  SUNNY     61  37  41 NW15G21   30.05S
ANDALUSIA*       N/A     55  37  50 MISG      30.04S
FLORALA APT    SUNNY     59  37  44 VRB7      30.06F
FLORALA*         N/A     55  37  50 W6        30.03S

$$

FLZ001>006-271800-
WESTERN FLORIDA PANHANDLE

CITY           SKY/WX    TMP DP  RH WIND       PRES   REMARKS
PENSACOLA      SUNNY     61  37  41 N14       30.07F
NAS PENSACOLA  SUNNY     62  39  42 NW10      30.07F
MILTON         MOSUNNY   60  37  42 NW8       30.06F
WHTNG S FIELD  MOSUNNY   63  38  39 N12       30.07F


CITY           SKY/WX    TMP DP  RH WIND       PRES   REMARKS
WALNUT HILL*   NOT AVBL
JAY*           NOT AVBL
DUKE FIELD     SUNNY     60  37  42 NW12G21   30.05F
CRESTVIEW      SUNNY     74  38  27 NW16G22   30.07F
VALPARAISO     NOT AVBL
DESTIN         SUNNY     61  39  44 NW7       30.05F

$$

MSZ076-079-271800-
INTERIOR SOUTHEAST MISSISSIPPI

CITY           SKY/WX    TMP DP  RH WIND       PRES   REMARKS
LEAKESVILLE*   NOT AVBL
AGRICOLA*      NOT AVBL

$$

MARINE OBSERVATIONS

STATION/POSITION TIME  TEMP    WIND        PRES    WAVE
                       AIR SEA DIR/SP/G            HT/PER
                 (UTC) (F)     (DEG/KT/KT) (MB)    (FT/S)
PASCAGOULA       1700   61     350/  9/ 12 1019.2F
PETIT BOIS ISLND 1700   58     310/  6/  9 1019.9F
GRAND BAY        1600   57     340/ 10     1020.0S
KATRINA CUT      1600   55     320/  8     1020.3S
CEDAR POINT      1600   56     340/  9     1019.0F
E DAUPHIN ISLAND 1600   55     320/  9/ 10 1019.3R
MIDDLE BAY LIGHT 1600   57      10/  7     1018.6F
USCG MOBILE BAY  1700   59 53  340/  4/  7 1018.0F
STATE DOCKS      1700   62 50              1018.7F
MEAHER PARK      1600   58     340/  6     1019.3S
WEEKS BAY        1600   56                   N/A
FORT MORGAN      1700   56      20/  6/  6 1018.9F
12 S ORANGE BCH  1700   56 61  300/ 10/ 12 1018.5F   4/ 5
PENSACOLA BAY    1700   60 56  330/  7/ 11 1018.5F
64 S DAUPHIN ISL 1601   60 70  340/ 17/ 21 1020.4R   5/ 7

$$

SELECTED LOCATIONS ACROSS THE REGION

CITY           SKY/WX    TMP DP  RH WIND       PRES   REMARKS
NEW ORLEANS    MOSUNNY   62  41  46 N6        30.15S
GULFPORT       SUNNY     63  39  41 NW6       30.12S
PASCAGOULA AP  SUNNY     63  39  41 NW8G20    30.11S
PASCAGOULA*    NOT AVBL
HATTIESBURG    SUNNY     62  38  40 NW12      30.13S
LAUREL         SUNNY     63  37  39 N12       30.13S
MERIDIAN       SUNNY     60  37  42 N9G16     30.09F
JACKSON        SUNNY     62  36  37 N15       30.13S
MONTGOMERY     SUNNY     55  37  50 NW9       30.05S
TROY           SUNNY     57  35  43 NW14G20   30.04S
KINSTON*       NOT AVBL
GENEVA*        NOT AVBL
ASHFORD*         N/A     55  37  50 MISG      30.04S
DOTHAN         SUNNY     55  37  50 NW14      30.04F
PANAMA CITY    SUNNY     60  38  43 W13G20    30.03F

$$



USA.gov is the U.S. government's official web portal to all federal, state and local government web resources and services.